GW4769 Weather Reports


Display with metric or nautical units.
time (UTC)temp
F
wind
direction
speed
MPH
gust
MPH
rain 1hr
in
rain 24hr
in
rain mn
in
humidity
%
barometer
mb
20260506235002 74 200 8.0 13.0 0.00 0.00 0.00 83 1014.4
20260506234515 74 181 7.0 16.0 0.00 0.00 0.00 82 1014.5
20260506234007 74 205 7.0 16.0 0.00 0.00 0.00 82 1014.4
20260506233506 74 185 8.0 16.0 0.00 0.00 0.00 81 1014.4
20260506233020 75 161 8.0 16.0 0.00 0.00 0.00 81 1014.4
20260506232506 75 152 8.0 14.0 0.00 0.00 0.00 81 1014.4
20260506232013 75 271 6.0 14.0 0.00 0.00 0.00 80 1014.3
20260506231503 75 219 8.0 17.0 0.00 0.00 0.00 80 1014.3
20260506231002 75 191 8.0 17.0 0.00 0.00 0.00 79 1014.3
20260506230504 75 202 10.0 17.0 0.00 0.00 0.00 79 1014.2
20260506230006 75 217 9.0 17.0 0.00 0.00 0.00 79 1014.2
20260506225503 75 188 10.0 17.0 0.00 0.00 0.00 78 1014.2
20260506225005 75 195 11.0 17.0 0.00 0.00 0.00 78 1014.2
20260506224523 75 197 9.0 17.0 0.00 0.00 0.00 78 1014.3
20260506224007 75 196 8.0 16.0 0.00 0.00 0.00 78 1014.4
20260506223503 76 175 10.0 15.0 0.00 0.00 0.00 77 1014.5
20260506223016 76 205 6.0 16.0 0.00 0.00 0.00 77 1014.6
20260506222508 76 207 9.0 16.0 0.00 0.00 0.00 76 1014.6
20260506222007 76 183 8.0 17.0 0.00 0.00 0.00 76 1014.5
20260506221523 77 203 9.0 17.0 0.00 0.00 0.00 75 1014.5
20260506221006 77 211 10.0 17.0 0.00 0.00 0.00 75 1014.6
20260506220509 77 172 11.0 17.0 0.00 0.00 0.00 74 1014.4
20260506220006 78 183 10.0 20.0 0.00 0.00 0.00 74 1014.3
20260506215504 77 171 13.0 20.0 0.00 0.00 0.00 74 1014.4
20260506215005 78 177 14.0 20.0 0.00 0.00 0.00 73 1014.4
20260506214511 78 202 10.0 20.0 0.00 0.00 0.00 74 1014.4
20260506214004 78 165 12.0 20.0 0.00 0.00 0.00 75 1014.5
20260506213504 78 205 10.0 18.0 0.00 0.00 0.00 74 1014.7
20260506213020 78 174 14.0 18.0 0.00 0.00 0.00 73 1014.8
20260506212505 78 152 10.0 19.0 0.00 0.00 0.00 74 1014.7
20260506212008 78 164 12.0 19.0 0.00 0.00 0.00 73 1014.8
20260506211520 78 160 11.0 17.0 0.00 0.00 0.00 74 1014.9
20260506211008 78 184 11.0 18.0 0.00 0.00 0.00 72 1014.9
20260506210506 78 172 10.0 18.0 0.00 0.00 0.00 73 1014.9
20260506210026 79 172 10.0 19.0 0.00 0.00 0.00 74 1014.9
20260506205507 79 170 9.0 19.0 0.00 0.00 0.00 73 1015.1
20260506205009 78 189 9.0 18.0 0.00 0.00 0.00 74 1015.0
20260506204526 78 184 13.0 19.0 0.00 0.00 0.00 73 1015.1
20260506204003 78 193 10.0 21.0 0.00 0.00 0.00 73 1015.1
20260506203504 78 174 14.0 21.0 0.00 0.00 0.00 74 1015.0
20260506203012 79 185 10.0 18.0 0.00 0.00 0.00 74 1015.0
20260506202504 79 199 11.0 18.0 0.00 0.00 0.00 73 1015.2
20260506202004 78 184 13.0 19.0 0.00 0.00 0.00 74 1015.3
20260506201521 78 193 14.0 19.0 0.00 0.00 0.00 73 1015.3
20260506201005 79 181 10.0 19.0 0.00 0.00 0.00 73 1015.4
20260506200508 79 195 11.0 18.0 0.00 0.00 0.00 73 1015.5
20260506200025 79 169 9.0 15.0 0.00 0.00 0.00 72 1015.5
20260506195506 79 159 7.0 14.0 0.00 0.00 0.00 73 1015.5
20260506195011 79 202 8.0 18.0 0.00 0.00 0.00 74 1015.6
20260506194526 78 182 12.0 18.0 0.00 0.00 0.00 71 1015.6
20260506194009 79 201 8.0 17.0 0.00 0.00 0.00 73 1015.5
20260506193508 78 224 9.0 17.0 0.00 0.00 0.00 73 1015.6
20260506193028 78 176 9.0 18.0 0.00 0.00 0.00 73 1015.7
20260506192506 78 207 12.0 18.0 0.00 0.00 0.00 73 1015.7
20260506192004 79 185 12.0 17.0 0.00 0.00 0.00 73 1015.8
20260506191516 79 179 13.0 16.0 0.00 0.00 0.00 72 1015.9
20260506191007 79 246 7.0 15.0 0.00 0.00 0.00 72 1016.0
20260506190507 79 176 8.0 15.0 0.00 0.00 0.00 72 1016.0
20260506190029 79 160 8.0 13.0 0.00 0.00 0.00 71 1016.0
20260506185507 79 207 7.0 14.0 0.00 0.00 0.00 71 1016.1
20260506185007 79 211 6.0 14.0 0.00 0.00 0.00 72 1016.3
20260506184523 79 157 7.0 14.0 0.00 0.00 0.00 72 1016.3
20260506184008 79 151 9.0 16.0 0.00 0.00 0.00 72 1016.3
20260506183508 79 169 12.0 16.0 0.00 0.00 0.00 71 1016.4
20260506183023 79 204 7.0 14.0 0.00 0.00 0.00 71 1016.5
20260506182509 79 198 8.0 14.0 0.00 0.00 0.00 72 1016.4
20260506182019 79 166 5.0 14.0 0.00 0.00 0.00 71 1016.6
20260506181528 79 155 10.0 14.0 0.00 0.00 0.00 72 1016.6
20260506181009 79 184 9.0 14.0 0.00 0.00 0.00 72 1016.6
20260506180505 78 195 10.0 14.0 0.00 0.00 0.00 73 1016.6
20260506180016 78 155 8.0 14.0 0.00 0.00 0.00 73 1016.7
20260506175507 79 174 8.0 14.0 0.00 0.00 0.00 73 1016.8
20260506175004 78 168 8.0 13.0 0.00 0.00 0.00 74 1016.9
20260506174520 78 172 7.0 14.0 0.00 0.00 0.00 74 1017.0
20260506174008 78 194 9.0 14.0 0.00 0.00 0.00 73 1017.1
20260506173507 78 146 8.0 13.0 0.00 0.00 0.00 73 1017.1
20260506173027 78 188 7.0 12.0 0.00 0.00 0.00 74 1017.2
20260506172507 77 231 7.0 13.0 0.00 0.00 0.00 75 1017.2
20260506172010 77 224 7.0 13.0 0.00 0.00 0.00 74 1017.2
20260506171525 78 193 4.0 13.0 0.00 0.00 0.00 76 1017.3
20260506171010 78 185 8.0 13.0 0.00 0.00 0.00 76 1017.4
20260506170516 78 174 5.0 10.0 0.00 0.00 0.00 77 1017.4
20260506170027 77 179 5.0 11.0 0.00 0.00 0.00 76 1017.5
20260506165510 77 200 6.0 13.0 0.00 0.00 0.00 76 1017.6
20260506165005 77 172 8.0 13.0 0.00 0.00 0.00 76 1017.6
20260506164516 77 207 7.0 13.0 0.00 0.00 0.00 76 1017.6
20260506164007 77 195 8.0 14.0 0.00 0.00 0.00 75 1017.4
20260506163509 77 197 7.0 14.0 0.00 0.00 0.00 76 1017.4
20260506163039 78 190 9.0 13.0 0.00 0.00 0.00 75 1017.4
20260506162507 78 168 7.0 12.0 0.00 0.00 0.00 75 1017.6
20260506162012 78 224 7.0 11.0 0.00 0.00 0.00 73 1017.6
20260506161504 78 176 5.0 12.0 0.00 0.00 0.00 72 1017.5
20260506161002 78 180 7.0 12.0 0.00 0.00 0.00 71 1017.4
20260506160506 78 156 6.0 12.0 0.00 0.00 0.00 73 1017.5
20260506160008 78 212 6.0 12.0 0.00 0.00 0.00 74 1017.6
20260506155504 77 143 6.0 12.0 0.00 0.00 0.00 74 1017.7
20260506155007 77 198 7.0 12.0 0.00 0.00 0.00 75 1017.7
20260506154528 77 162 5.0 10.0 0.00 0.00 0.00 77 1017.8
20260506154006 76 184 5.0 9.0 0.00 0.00 0.00 76 1017.8
20260506153505 77 176 5.0 11.0 0.00 0.00 0.00 75 1017.7
20260506153022 77 236 6.0 11.0 0.00 0.00 0.00 75 1017.7
20260506152510 77 248 6.0 14.0 0.00 0.00 0.00 76 1017.7
20260506152014 77 161 6.0 14.0 0.00 0.00 0.00 75 1017.7
20260506151504 77 223 4.0 8.0 0.00 0.00 0.00 76 1017.8
20260506151002 77 169 4.0 9.0 0.00 0.00 0.00 76 1017.8
20260506150504 77 160 5.0 11.0 0.00 0.00 0.00 77 1017.7
20260506150008 77 207 5.0 11.0 0.00 0.00 0.00 76 1017.7
20260506145505 77 191 6.0 11.0 0.00 0.00 0.00 75 1017.7
20260506145005 77 208 5.0 12.0 0.00 0.00 0.00 74 1017.7
20260506144511 77 172 6.0 12.0 0.00 0.00 0.00 75 1017.6
20260506144009 77 200 6.0 11.0 0.00 0.00 0.00 76 1017.5
20260506143507 76 210 6.0 11.0 0.00 0.00 0.00 77 1017.5
20260506143018 76 184 5.0 13.0 0.00 0.00 0.00 77 1017.4
20260506142505 76 154 6.0 13.0 0.00 0.00 0.00 77 1017.4
20260506142004 75 185 6.0 12.0 0.00 0.00 0.00 78 1017.3
20260506141521 75 174 5.0 12.0 0.00 0.00 0.00 79 1017.2
20260506141012 75 254 6.0 10.0 0.00 0.00 0.00 78 1017.3
20260506140508 75 186 4.0 10.0 0.00 0.00 0.00 79 1017.4
20260506140008 75 155 4.0 10.0 0.00 0.00 0.00 78 1017.3
20260506135503 75 199 6.0 10.0 0.00 0.00 0.00 78 1017.3
20260506135003 75 228 4.0 11.0 0.00 0.00 0.00 78 1017.2
20260506134508 75 223 5.0 13.0 0.00 0.00 0.00 78 1017.1
20260506134007 75 224 5.0 13.0 0.00 0.00 0.00 78 1017.0
20260506133505 75 167 5.0 11.0 0.00 0.00 0.00 77 1017.1
20260506133010 75 193 4.0 12.0 0.00 0.00 0.00 77 1017.1
20260506132508 75 217 4.0 12.0 0.00 0.00 0.00 77 1016.9
20260506132006 76 210 5.0 11.0 0.00 0.00 0.00 77 1017.0
20260506131519 76 228 4.0 11.0 0.00 0.00 0.00 78 1016.8
20260506131007 75 248 5.0 11.0 0.00 0.00 0.00 78 1016.8
20260506130510 75 137 5.0 11.0 0.00 0.00 0.00 78 1016.7
20260506130024 75 146 5.0 11.0 0.00 0.00 0.00 78 1016.9
20260506125508 75 203 4.0 9.0 0.00 0.00 0.00 78 1016.8
20260506125008 75 181 3.0 9.0 0.00 0.00 0.00 79 1016.9
20260506124525 74 249 2.0 9.0 0.00 0.00 0.00 80 1017.0
20260506124006 74 214 4.0 9.0 0.00 0.00 0.00 81 1016.8
20260506123504 74 206 5.0 9.0 0.00 0.00 0.00 81 1016.7
20260506123010 74 196 5.0 10.0 0.00 0.00 0.00 81 1016.8
20260506122506 73 155 5.0 10.0 0.00 0.00 0.00 82 1016.8
20260506122005 73 183 4.0 10.0 0.00 0.00 0.00 83 1016.8
20260506121516 73 234 6.0 11.0 0.00 0.00 0.00 82 1016.8
20260506121007 72 175 4.0 11.0 0.00 0.00 0.00 84 1016.7
20260506120506 72 165 4.0 9.0 0.00 0.00 0.00 85 1016.5
20260506120018 72 210 5.0 9.0 0.00 0.00 0.00 86 1016.5
20260506115508 71 186 6.0 9.0 0.00 0.00 0.00 86 1016.5
20260506115008 71 190 5.0 9.0 0.00 0.00 0.00 87 1016.4
20260506114525 71 185 3.0 6.0 0.00 0.00 0.00 89 1016.4
20260506114008 70 193 3.0 7.0 0.00 0.00 0.00 89 1016.4
20260506113507 70 180 3.0 7.0 0.00 0.00 0.00 90 1016.2
20260506113028 69 185 4.0 6.0 0.00 0.00 0.00 90 1016.1
20260506112504 69 166 4.0 6.0 0.00 0.00 0.00 91 1016.2
20260506112004 69 171 4.0 6.0 0.00 0.00 0.00 91 1016.2
20260506111524 68 184 3.0 5.0 0.00 0.00 0.00 91 1016.2
20260506111005 68 209 1.0 4.0 0.00 0.00 0.00 91 1016.4
20260506110505 67 212 2.0 4.0 0.00 0.00 0.00 92 1016.3
20260506110014 67 175 1.0 3.0 0.00 0.00 0.00 92 1016.3
20260506105508 66 193 2.0 3.0 0.00 0.00 0.00 92 1016.3
20260506105011 66 202 1.0 3.0 0.00 0.00 0.00 92 1016.3
20260506104520 66 201 1.0 3.0 0.00 0.00 0.00 92 1016.2
20260506104008 66 192 1.0 3.0 0.00 0.00 0.00 92 1016.1
20260506103507 66 198 1.0 3.0 0.00 0.00 0.00 92 1016.0
20260506103026 66 203 0.0 4.0 0.00 0.00 0.00 92 1016.0
20260506102507 66 201 2.0 4.0 0.00 0.00 0.00 92 1015.9
20260506102010 65 188 1.0 3.0 0.00 0.00 0.00 91 1015.9
20260506101526 65 182 1.0 3.0 0.00 0.00 0.00 91 1015.9
20260506101008 65 181 0.0 3.0 0.00 0.00 0.00 91 1016.0
20260506100504 65 195 1.0 3.0 0.00 0.00 0.00 91 1016.0
20260506100013 65 224 0.0 2.0 0.00 0.00 0.00 91 1016.0
20260506095507 66 190 1.0 3.0 0.00 0.00 0.00 91 1016.0
20260506095009 66 158 0.0 3.0 0.00 0.00 0.00 91 1016.0
20260506094521 66 244 0.0 4.0 0.00 0.00 0.00 90 1016.0
20260506094008 66 205 1.0 5.0 0.00 0.00 0.00 90 1015.9
20260506093507 66 178 2.0 5.0 0.00 0.00 0.00 90 1015.8
20260506093024 66 195 1.0 5.0 0.00 0.00 0.00 90 1015.9
20260506092506 66 199 1.0 5.0 0.00 0.00 0.00 90 1016.0
20260506092011 66 212 1.0 4.0 0.00 0.00 0.00 90 1016.0
20260506091527 66 217 1.0 5.0 0.00 0.00 0.00 90 1015.9
20260506091012 66 231 1.0 5.0 0.00 0.00 0.00 90 1015.9
20260506090509 66 196 3.0 4.0 0.00 0.00 0.00 90 1015.8
20260506090028 66 182 3.0 4.0 0.00 0.00 0.00 90 1015.7
20260506085510 66 188 2.0 3.0 0.00 0.00 0.00 89 1015.9
20260506085005 66 205 1.0 4.0 0.00 0.00 0.00 89 1015.9
20260506084519 66 181 3.0 4.0 0.00 0.00 0.00 89 1015.7
20260506084006 66 199 1.0 4.0 0.00 0.00 0.00 88 1015.9
20260506083508 66 172 3.0 4.0 0.00 0.00 0.00 88 1015.9
20260506083025 66 206 1.0 4.0 0.00 0.00 0.00 88 1016.0
20260506082507 66 189 1.0 5.0 0.00 0.00 0.00 88 1016.0
20260506082011 67 194 2.0 6.0 0.00 0.00 0.00 88 1015.9
20260506081523 67 210 3.0 7.0 0.00 0.00 0.00 88 1015.8
20260506081011 67 203 4.0 7.0 0.00 0.00 0.00 87 1015.7
20260506080508 67 184 3.0 7.0 0.00 0.00 0.00 87 1015.8
20260506073514 67 196 5.0 7.0 0.00 0.00 0.00 87 1015.9
20260506073016 67 192 4.0 6.0 0.00 0.00 0.00 87 1015.9
20260506072506 67 238 3.0 7.0 0.00 0.00 0.00 86 1015.9
20260506072008 67 185 3.0 7.0 0.00 0.00 0.00 86 1015.7
20260506071504 67 187 5.0 8.0 0.00 0.00 0.00 86 1015.6
20260506071002 67 204 4.0 8.0 0.00 0.00 0.00 86 1015.8
20260506070503 67 206 6.0 8.0 0.00 0.00 0.00 86 1015.6
20260506062511 67 169 4.0 7.0 0.00 0.00 0.00 85 1016.3
20260506062003 67 217 4.0 7.0 0.00 0.00 0.00 85 1016.3
20260506061520 67 209 3.0 7.0 0.00 0.00 0.00 85 1016.5
20260506061007 67 158 3.0 7.0 0.00 0.00 0.00 85 1016.6
20260506060509 67 195 5.0 7.0 0.00 0.00 0.00 85 1016.4
20260506051003 68 189 3.0 5.0 0.00 0.00 0.00 82 1016.5
20260506050507 68 181 4.0 6.0 0.00 0.00 0.00 82 1016.6
20260506045008 68 167 4.0 7.0 0.00 0.00 0.00 80 1016.7
20260506044525 68 169 5.0 7.0 0.00 0.00 0.00 80 1016.7
20260506044003 68 167 4.0 7.0 0.00 0.00 0.00 79 1016.7
20260506043503 69 162 4.0 8.0 0.00 0.00 0.00 79 1016.8
20260506043010 69 161 5.0 8.0 0.00 0.00 0.00 79 1016.9
20260506042504 69 165 5.0 9.0 0.00 0.00 0.00 78 1016.8
20260506042004 69 171 6.0 9.0 0.00 0.00 0.00 78 1016.9
20260506041519 69 186 6.0 9.0 0.00 0.00 0.00 78 1017.1
20260506041005 69 167 6.0 9.0 0.00 0.00 0.00 77 1017.0
20260506040507 69 184 7.0 10.0 0.00 0.00 0.00 77 1017.1
20260506040018 69 181 7.0 11.0 0.00 0.00 0.00 77 1016.9
20260506035511 69 176 7.0 11.0 0.00 0.00 0.00 76 1016.9
20260506035007 69 160 8.0 11.0 0.00 0.00 0.00 76 1017.0
20260506034532 69 152 8.0 12.0 0.00 0.00 0.00 76 1017.0
20260506034011 69 173 9.0 12.0 0.00 0.00 0.00 75 1017.1
20260506033506 69 156 7.0 11.0 0.00 0.00 0.00 75 1017.1
20260506033026 69 153 7.0 11.0 0.00 0.00 0.00 75 1017.1
20260506032507 69 147 7.0 10.0 0.00 0.00 0.00 75 1017.0
20260506032004 69 174 6.0 10.0 0.00 0.00 0.00 75 1017.0
20260506031510 69 170 6.0 9.0 0.00 0.00 0.00 74 1017.1
20260506031005 69 159 7.0 11.0 0.00 0.00 0.00 74 1017.1
20260506030506 69 153 7.0 11.0 0.00 0.00 0.00 74 1017.0
20260506030015 69 141 7.0 11.0 0.00 0.00 0.00 74 1017.0
20260506025507 69 173 6.0 10.0 0.00 0.00 0.00 74 1017.1
20260506025004 69 157 7.0 10.0 0.00 0.00 0.00 73 1017.0
20260506024520 69 155 6.0 11.0 0.00 0.00 0.00 73 1017.1
20260506024007 69 153 7.0 11.0 0.00 0.00 0.00 72 1017.1
20260506023509 69 155 7.0 11.0 0.00 0.00 0.00 72 1017.0
20260506023025 69 171 7.0 11.0 0.00 0.00 0.00 72 1016.9
20260506022507 69 170 6.0 11.0 0.00 0.00 0.00 72 1016.8
20260506022009 69 170 6.0 11.0 0.00 0.00 0.00 71 1016.9
20260506021526 69 167 7.0 12.0 0.00 0.00 0.00 71 1016.9
20260506021007 69 160 8.0 12.0 0.00 0.00 0.00 72 1016.8
20260506020506 69 146 7.0 12.0 0.00 0.00 0.00 71 1016.9
20260506020014 69 149 7.0 12.0 0.00 0.00 0.00 72 1016.9
20260506015504 69 153 7.0 13.0 0.00 0.00 0.00 71 1016.9
20260506015005 69 160 8.0 13.0 0.00 0.00 0.00 71 1017.0
20260506014522 69 155 7.0 11.0 0.00 0.00 0.00 71 1017.0
20260506014004 69 152 7.0 11.0 0.00 0.00 0.00 71 1017.1
20260506013504 69 148 8.0 11.0 0.00 0.00 0.00 71 1017.1
20260506013036 69 152 7.0 11.0 0.00 0.00 0.00 71 1017.0
20260506012508 69 165 7.0 11.0 0.00 0.00 0.00 71 1017.0
20260506012007 69 144 8.0 11.0 0.00 0.00 0.00 70 1016.8
20260506011516 69 158 7.0 11.0 0.00 0.00 0.00 71 1016.8
20260506011007 69 149 7.0 11.0 0.00 0.00 0.00 71 1016.9
20260506010503 69 147 7.0 11.0 0.00 0.00 0.00 71 1016.9
20260506010009 69 153 6.0 9.0 0.00 0.00 0.00 72 1016.8
20260506005504 69 140 5.0 10.0 0.00 0.00 0.00 70 1016.6
20260506005003 69 155 6.0 10.0 0.00 0.00 0.00 70 1016.4
20260506004512 69 145 6.0 10.0 0.00 0.00 0.00 70 1016.3
20260506004003 69 146 7.0 10.0 0.00 0.00 0.00 69 1016.4
20260506003507 69 137 5.0 9.0 0.00 0.00 0.00 70 1016.5
20260506003020 69 148 7.0 9.0 0.00 0.00 0.00 70 1016.5
20260506002504 69 139 7.0 9.0 0.00 0.00 0.00 70 1016.5
20260506002009 69 144 7.0 10.0 0.00 0.00 0.00 70 1016.5
20260506001522 69 154 6.0 10.0 0.00 0.00 0.00 70 1016.4
20260506001008 69 135 7.0 10.0 0.00 0.00 0.00 70 1016.6
20260506000509 69 165 7.0 11.0 0.00 0.00 0.00 70 1016.7
20260506000004 70 156 7.0 11.0 0.00 0.00 0.00 70 1016.8
20260505235503 70 146 6.0 12.0 0.00 0.00 0.00 69 1016.8